Skip Page Navigation
NASA JPL Caltech
NASA Logo - Jet Propulsion Laboratory + View the NASA Portal
+ Center for Near-Earth Object Studies
JPL Home Earth Solar System Stars & Galaxies Technology
JPL Solar System Dynamics
BODIES ORBITS EPHEMERIDES TOOLS PHYSICAL DATA DISCOVERY FAQ SITE MAP
JPL Small-Body Database Browser
Search: [ help ]  
609 Fulvia (A906 SL)
Classification: Main-belt Asteroid          SPK-ID: 2000609
Ephemeris | Orbit Diagram | Orbital Elements | Mission Design | Physical Parameters | Discovery Circumstances | Close-Approach Data ]

[ show orbit diagram ]
Orbital Elements at Epoch 2459200.5 (2020-Dec-17.0) TDB
Reference: JPL 43 (heliocentric ecliptic J2000)
 Element Value Uncertainty (1-sigma)   Units 
e .03972138619246891 2.8996e-08  
a 3.084348791460589 1.1774e-08 au
q 2.961834181962709 8.7183e-08 au
i 4.187388379127933 3.751e-06 deg
node 165.1855551116977 4.322e-05 deg
peri 108.675518621432 6.4503e-05 deg
M 110.1868907707567 4.8236e-05 deg
tp 2458594.920617786708
(2019-Apr-21.42061779)
0.00026462 TDB
period 1978.534615795185
5.42
1.1329e-05
3.102e-08
d
yr
n .1819528438502017 1.0419e-09 deg/d
Q 3.206863400958471 1.2242e-08 au
  Orbit Determination Parameters
   # obs. used (total)      3666  
   data-arc span      41832 days (114.53 yr)  
   first obs. used      1906-08-24  
   last obs. used      2021-03-05  
   planetary ephem.      DE441  
   SB-pert. ephem.      SB441-N16  
   condition code      0  
   norm. resid. RMS      .41438  
   source      ORB  
   producer      Otto Matic  
   solution date      2021-Apr-12 11:10:20  

Additional Information
 Earth MOID = 1.94727 au 
 Jupiter MOID = 1.83125 au 
 T_jup = 3.222 
[ show covariance matrix ]

Ephemeris | Orbit Diagram | Orbital Elements | Mission Design | Physical Parameters | Discovery Circumstances | Close-Approach Data ]

Physical Parameter Table
Parameter Symbol Value Units Sigma Reference Notes
absolute magnitude H 10.31   n/a E2021B10  
diameter diameter 54.17 km 2.8 IRAS-A-FPA-3-RDR-IMPS-V6.0 IRAS observations used: 3
rotation period rot_per 35.375 h n/a LCDB (Rev. 2020-October); Warner et al., 2009 Published Reference List:
[Waszczak, A.; Chang, C.-K.; Ofeck, E.O.; Laher, F.; et al. (2015) Astron. J. 150, A75.]
[Pilcher, F. (2016) Minor Planet Bull. 43, 135-136.]
geometric albedo albedo 0.0602   0.007 IRAS-A-FPA-3-RDR-IMPS-V6.0 IRAS observations used: 3

609 Fulvia (A906 SL)          Discovered 1906-Sep-24 by Wolf, M. at Heidelberg
Reference: DISCOVERY.DBLast Updated: 2003-08-29

[ hide close-approach data ]
Close-Approach Data   ...sorted by Date/Time (TDB)
Date/Time (TDB) Time Uncertainty
(days_HH:MM)
Body Nominal Distance (au) Minimum Distance (au) Maximum Distance (au) V-relative (km/s) V-infinity (km/s) JD (TDB) Time Uncertainty (minutes) Semi-major axis (km) Semi-minor axis (km) range-LOV angle (deg) N-sigma BP Orbit Ref. Reference Modified
1928-Nov-21 04:27 00:02 Jupiter 1.8521740040766 1.8521736932971 1.8521743148562 3.23090601143466 3.08611867123056 2425571.685373011 1.56325471323009 79.4304853140895 10.4108027029906 85.6050295755324 4427171.24378349 T 43 CATAB v2.0f-lin.ifort 2021-Apr-12 11:11:15 2021-Apr-12 11:11
1988-Dec-12 08:09 < 00:01 Jupiter 1.88438570287426 1.8843853825452 1.88438602320332 3.13395176006859 2.98708269729614 2447507.839347186 0.477440520782611 33.8742889354945 9.96764164511353 78.8488003204923 4669258.32111453 T 43 CATAB v2.0f-lin.ifort 2021-Apr-12 11:11:15 2021-Apr-12 11:11
1998-Nov-02 19:41 < 00:01 Jupiter 1.92050107950355 1.92050076319457 1.92050139581253 3.66183364127509 3.53934184646954 2451120.320370940 0.302514770752914 30.4737052821464 12.5858623539252 -87.5288526406363 4510532.87263358 T 43 CATAB v2.0f-lin.ifort 2021-Apr-12 11:11:15 2021-Apr-12 11:11
2048-Dec-31 18:46 < 00:01 Jupiter 1.95327410879422 1.95327383253504 1.9532743850534 3.19697302962861 3.05832498477707 2469442.282041313 0.652951947358267 32.9906403750223 8.91484350597412 80.5031852787629 5355350.28780115 T 43 CATAB v2.0f-lin.ifort 2021-Apr-12 11:11:15 2021-Apr-12 11:11
2058-Nov-18 20:21 < 00:01 Jupiter 1.86792526169031 1.867924931006 1.86792559237462 3.39657877706603 3.26034273553785 2473051.348224299 0.816752049678521 50.2758956958314 11.9753309712164 -86.5423073464163 4262456.24702715 T 43 CATAB v2.0f-lin.ifort 2021-Apr-12 11:11:15 2021-Apr-12 11:11
2118-Dec-08 01:09 00:02 Jupiter 1.86294033705439 1.8629400396617 1.86294063444698 3.19307257111445 3.04735509227249 2494984.547619441 1.91885050333232 85.8189590537558 10.192297244788 87.1265470535948 4447254.54752975 T 43 CATAB v2.0f-lin.ifort 2021-Apr-12 11:11:15 2021-Apr-12 11:11
2128-Nov-03 20:52 00:02 Jupiter 1.98619445467111 1.98619386032231 1.98619504902138 3.9191250102824 3.80875713213259 2498603.369400967 2.02700994470672 107.842138271127 13.2664384322952 -77.7357679208675 4777271.53188019 T 43 CATAB v2.0f-lin.ifort 2021-Apr-12 11:11:15 2021-Apr-12 11:11
2178-Dec-27 06:53 00:03 Jupiter 1.90266680226023 1.90266634864053 1.90266725588048 3.11949388432777 2.97336326956453 2516918.786658686 3.02220909057736 73.5835535659935 9.59479646283599 75.1181064363064 4953391.61597481 T 43 CATAB v2.0f-lin.ifort 2021-Apr-12 11:11:15 2021-Apr-12 11:11
2188-Nov-15 15:58 00:03 Jupiter 1.9064536308803 1.90645299699339 1.90645426477176 3.62236833711356 3.49756600149623 2520530.165587984 3.13723509300822 176.905503178503 12.8534834806652 -82.7912351323836 4384839.51711192 T 43 CATAB v2.0f-lin.ifort 2021-Apr-12 11:11:15 2021-Apr-12 11:11

Alternate Designations
 A906 SL = 1942 EK1 = 1942 FK = 1948 LM = 1969 FM = 2002 LN60 = A917 SR 
Ephemeris | Orbit Diagram | Orbital Elements | Mission Design | Physical Parameters | Discovery Circumstances | Close-Approach Data ]
ABOUT SSD CREDITS/AWARDS PRIVACY/COPYRIGHT GLOSSARY LINKS
FirstGov 2021-Apr-22 21:46 UT
(server date/time)  
NASA Home Page
Site Manager:   Ryan S. Park
Webmaster  Alan B. Chamberlin